Location: Newark
(46.7000°N, 60.6000°W)
Time: 01:00:49
(UTC+00:00)

Transit 2A Rocket - Visible Passes

Search period start: 27 October 2020 00:00
Search period end: 06 November 2020 00:00
Orbit: 586 x 916 km, 66.7° (Epoch: 26 October)

Date Brightness Start Highest point End Pass type
(mag) Time Alt. Az. Time Alt. Az. Time Alt. Az.
27 Oct 7.4 00:15:28 10° WNW 00:18:19 15° WSW 00:19:43 14° WSW visible
27 Oct 5.1 21:48:40 10° NNW 21:53:53 49° NE 21:58:36 10° SE visible
27 Oct 6.8 23:31:54 10° NW 23:36:08 26° WSW 23:39:12 14° SSW visible
28 Oct 5.9 22:48:52 10° NW 22:53:49 44° WSW 22:58:18 10° S visible
29 Oct 5.0 22:06:06 10° NW 22:11:22 76° WSW 22:16:06 10° SSE visible
30 Oct 4.9 21:23:29 10° NNW 21:28:46 67° NE 21:33:31 10° SE visible
30 Oct 7.5 23:07:17 10° WNW 23:10:41 18° WSW 23:13:54 10° SSW visible
31 Oct 6.7 22:23:57 10° NW 22:28:27 31° WSW 22:32:35 10° S visible
01 Nov 5.7 21:41:02 10° NW 21:46:05 53° WSW 21:50:40 10° SSE visible
02 Nov 8.0 22:43:11 10° WNW 22:45:12 12° WSW 22:47:08 10° SW visible
03 Nov 7.5 21:59:12 10° WNW 22:03:01 22° WSW 22:06:36 10° SSW visible
04 Nov 6.6 21:16:03 10° NW 21:20:45 37° WSW 21:25:02 10° S visible
05 Nov 8.6 10:11:41 10° SE 10:15:17 16° ESE 10:18:49 10° ENE visible
